Mongaup Valley, NY

12:57 AM EST on February 10, 2016 (GMT -0500)
Sullivan County International

Weather History for KMSV - November, 2013

Change the Weather History Date:

Monday, November 25, 2013

  Actual Average Record
Temperature  
Mean Temperature 22 °F -  
Max Temperature 32 °F 41 °F 60 °F (2001)
Min Temperature 12 °F 27 °F 10 °F (2005)
Degree Days  
Heating Degree Days 43    
Moisture  
Dew Point 8 °F    
Average Humidity 56    
Maximum Humidity 73    
Minimum Humidity 38    
Precipitation  
Precipitation 0.00 in - - ()
Sea Level Pressure  
Sea Level Pressure 30.29 in    
Wind  
Wind Speed 9 mph (WSW)    
Max Wind Speed 15 mph    
Max Gust Speed 24 mph    
Visibility 10 miles    
Events      
Averages and records for this station are not official NWS values.
T = Trace of Precipitation, MM = Missing Value Source: NWS Daily Summary

Daily Weather History Graph

Daily Weather History Graph

Search for Another Location

Airport or City:

Trip Planner

Search our weather history database for the weather conditions in past years. The results will help you decide how hot, cold, wet, or windy it might be!

Date:

Astronomy

Nov. 25, 2013 Rise Set
Actual Time 7:00 AM EST 4:31 PM EST
Civil Twilight 6:29 AM EST 5:02 PM EST
Nautical Twilight 5:55 AM EST 5:36 PM EST
Astronomical Twilight 5:22 AM EST 6:09 PM EST
Moon 11:57 PM EST (11/25) 12:12 PM EST (11/25)
Length of Visible Light 10h 32m
Length of Day
9h 31m
Waning Gibbous, 51% of the Moon is Illuminated
Nov 25
Waning Gibbous
Nov 25
Last Quarter
Dec 2
New
Dec 9
First Quarter
Dec 17
Full

Hourly Weather History & Observations

Time (EST) Temp. Windchill Dew Point Humidity Pressure Visibility Wind Dir Wind Speed Gust Speed Precip Events Conditions
12:15 AM 15.8 °F 3.4 °F 6.8 °F 68% 30.27 in 7.0 mi West 10.4 mph 18.4 mph N/A   Mostly Cloudy
12:35 AM 15.8 °F 2.7 °F 6.8 °F 68% 30.27 in 10.0 mi West 11.5 mph 18.4 mph N/A   Mostly Cloudy
12:55 AM 15.8 °F 4.2 °F 6.8 °F 68% 30.27 in 9.0 mi WNW 9.2 mph 18.4 mph N/A   Scattered Clouds
1:15 AM 15.8 °F 3.4 °F 6.8 °F 68% 30.27 in 9.0 mi West 10.4 mph - N/A   Scattered Clouds
1:35 AM 15.8 °F 5.1 °F 6.8 °F 68% 30.27 in 5.0 mi West 8.1 mph - N/A   Clear
1:55 AM 14.0 °F 2.9 °F 6.8 °F 73% 30.27 in 8.0 mi WNW 8.1 mph - N/A   Clear
2:15 AM 14.0 °F 2.9 °F 6.8 °F 73% 30.27 in 10.0 mi West 8.1 mph - N/A   Clear
2:35 AM 14.0 °F 2.9 °F 6.8 °F 73% 30.28 in 10.0 mi West 8.1 mph - N/A   Clear
2:55 AM 14.0 °F 1.2 °F 6.8 °F 73% 30.28 in 10.0 mi West 10.4 mph - N/A   Clear
3:15 AM 14.0 °F -0.2 °F 6.8 °F 73% 30.28 in 10.0 mi WNW 12.7 mph 17.3 mph N/A   Mostly Cloudy
3:35 AM 15.8 °F 3.4 °F 6.8 °F 68% 30.28 in 10.0 mi WNW 10.4 mph 16.1 mph N/A   Mostly Cloudy
3:55 AM 14.0 °F -1.4 °F 6.8 °F 73% 30.29 in 10.0 mi WNW 15.0 mph 24.2 mph N/A   Scattered Clouds
4:15 AM 14.0 °F -0.2 °F 5.0 °F 67% 30.30 in 10.0 mi WNW 12.7 mph 16.1 mph N/A   Clear
4:35 AM 14.0 °F 0.5 °F 5.0 °F 67% 30.31 in 10.0 mi West 11.5 mph - N/A   Clear
4:55 AM 12.2 °F -1.0 °F 5.0 °F 73% 30.32 in 10.0 mi WNW 10.4 mph - N/A   Clear
5:15 AM 12.2 °F -0.2 °F 5.0 °F 73% 30.32 in 10.0 mi WNW 9.2 mph - N/A   Clear
5:35 AM 12.2 °F 0.7 °F 5.0 °F 73% 30.32 in 10.0 mi WNW 8.1 mph - N/A   Clear
5:55 AM 12.2 °F -1.0 °F 5.0 °F 73% 30.32 in 10.0 mi WNW 10.4 mph - N/A   Clear
6:15 AM 12.2 °F 0.7 °F 3.2 °F 67% 30.33 in 10.0 mi WNW 8.1 mph - N/A   Clear
6:35 AM 12.2 °F 1.7 °F 3.2 °F 67% 30.34 in 10.0 mi West 6.9 mph - N/A   Clear
6:55 AM 12.2 °F 2.9 °F 3.2 °F 67% 30.35 in 10.0 mi West 5.8 mph - N/A   Clear
7:15 AM 12.2 °F 4.3 °F 5.0 °F 73% 30.36 in 10.0 mi WSW 4.6 mph - N/A   Clear
7:35 AM 12.2 °F 4.3 °F 5.0 °F 73% 30.36 in 10.0 mi West 4.6 mph - N/A   Clear
7:55 AM 14.0 °F 2.9 °F 5.0 °F 67% 30.36 in 10.0 mi West 8.1 mph - N/A   Clear
8:15 AM 15.8 °F 5.1 °F 6.8 °F 68% 30.37 in 10.0 mi West 8.1 mph - N/A   Clear
8:35 AM 15.8 °F 3.4 °F 6.8 °F 68% 30.37 in 10.0 mi WNW 10.4 mph - N/A   Clear
8:55 AM 17.6 °F 5.7 °F 6.8 °F 63% 30.36 in 10.0 mi WNW 10.4 mph 17.3 mph N/A   Clear
9:15 AM 17.6 °F 4.3 °F 6.8 °F 63% 30.36 in 10.0 mi West 12.7 mph 17.3 mph N/A   Clear
9:35 AM 19.4 °F 7.2 °F 8.6 °F 63% 30.36 in 10.0 mi WNW 11.5 mph - N/A   Clear
9:55 AM 19.4 °F 10.4 °F 8.6 °F 63% 30.37 in 10.0 mi NW 6.9 mph 18.4 mph N/A   Clear
10:15 AM 21.2 °F 10.1 °F 6.8 °F 54% 30.37 in 10.0 mi West 10.4 mph 17.3 mph N/A   Clear
10:35 AM 23.0 °F 11.7 °F 8.6 °F 54% 30.36 in 10.0 mi West 11.5 mph - N/A   Clear
10:55 AM 23.0 °F 13.1 °F 8.6 °F 54% 30.35 in 10.0 mi West 9.2 mph - N/A   Clear
11:15 AM 24.8 °F 14.6 °F 8.6 °F 50% 30.34 in 10.0 mi West 10.4 mph - N/A   Clear
11:35 AM 24.8 °F 14.0 °F 10.4 °F 54% 30.34 in 10.0 mi West 11.5 mph - N/A   Clear
11:55 AM 24.8 °F - 8.6 °F 50% 30.33 in 10.0 mi Calm Calm - N/A   Clear
12:15 PM 26.6 °F 19.1 °F 10.4 °F 51% 30.33 in 10.0 mi SSW 6.9 mph - N/A   Clear
12:35 PM 28.4 °F 23.3 °F 10.4 °F 47% 30.32 in 10.0 mi WSW 4.6 mph - N/A   Clear
12:55 PM 26.6 °F 19.1 °F 10.4 °F 51% 30.31 in 10.0 mi SSW 6.9 mph - N/A   Clear
1:15 PM 28.4 °F 19.1 °F 12.2 °F 51% 30.29 in 10.0 mi WSW 10.4 mph - N/A   Clear
1:35 PM 28.4 °F 20.4 °F 10.4 °F 47% 30.29 in 10.0 mi SW 8.1 mph - N/A   Clear
1:55 PM 28.4 °F 22.2 °F 10.4 °F 47% 30.28 in 10.0 mi WSW 5.8 mph - N/A   Clear
2:15 PM 30.2 °F 26.7 °F 10.4 °F 44% 30.27 in 10.0 mi SSW 3.5 mph - N/A   Clear
2:35 PM 30.2 °F 24.3 °F 10.4 °F 44% 30.27 in 10.0 mi SW 5.8 mph - N/A   Clear
2:55 PM 30.2 °F 23.4 °F 10.4 °F 44% 30.27 in 10.0 mi SW 6.9 mph - N/A   Clear
3:15 PM 32.0 °F 25.6 °F 8.6 °F 38% 30.26 in 10.0 mi SW 6.9 mph - N/A   Clear
3:35 PM 30.2 °F 24.3 °F 8.6 °F 40% 30.26 in 10.0 mi SSW 5.8 mph - N/A   Clear
3:55 PM 30.2 °F 23.4 °F 8.6 °F 40% 30.28 in 10.0 mi SSW 6.9 mph - N/A   Clear
4:15 PM 30.2 °F 23.4 °F 10.4 °F 44% 30.28 in 10.0 mi South 6.9 mph - N/A   Clear
4:35 PM 28.4 °F 19.7 °F 10.4 °F 47% 30.27 in 10.0 mi South 9.2 mph - N/A   Clear
4:55 PM 26.6 °F 17.5 °F 10.4 °F 51% 30.25 in 10.0 mi SSE 9.2 mph - N/A   Clear
5:15 PM 26.6 °F 21.2 °F 10.4 °F 51% 30.26 in 10.0 mi South 4.6 mph - N/A   Clear
5:35 PM 26.6 °F 19.1 °F 10.4 °F 51% 30.26 in 10.0 mi South 6.9 mph - N/A   Clear
5:55 PM 26.6 °F 16.8 °F 10.4 °F 51% 30.26 in 10.0 mi South 10.4 mph 16.1 mph N/A   Clear
6:15 PM 26.6 °F 17.5 °F 10.4 °F 51% 30.27 in 10.0 mi South 9.2 mph - N/A   Clear
6:35 PM 26.6 °F 18.2 °F 8.6 °F 47% 30.26 in 10.0 mi South 8.1 mph - N/A   Clear
6:55 PM 26.6 °F 19.1 °F 8.6 °F 47% 30.26 in 10.0 mi South 6.9 mph - N/A   Clear
7:15 PM 26.6 °F 19.1 °F 10.4 °F 51% 30.26 in 10.0 mi South 6.9 mph - N/A   Clear
7:35 PM 26.6 °F 18.2 °F 8.6 °F 47% 30.26 in 10.0 mi South 8.1 mph - N/A   Partly Cloudy
7:55 PM 26.6 °F 18.2 °F 8.6 °F 47% 30.27 in 10.0 mi SSW 8.1 mph - N/A   Partly Cloudy
8:15 PM 26.6 °F 18.2 °F 6.8 °F 43% 30.26 in 10.0 mi SSW 8.1 mph - N/A   Mostly Cloudy
8:35 PM 26.6 °F 20.0 °F 6.8 °F 43% 30.26 in 10.0 mi SW 5.8 mph - N/A   Overcast
8:55 PM 26.6 °F 19.1 °F 8.6 °F 47% 30.25 in 10.0 mi SSW 6.9 mph - N/A   Overcast
9:15 PM 26.6 °F - 6.8 °F 43% 30.25 in 10.0 mi Calm Calm - N/A   Overcast
9:35 PM 26.6 °F 19.1 °F 8.6 °F 47% 30.24 in 10.0 mi SSW 6.9 mph - N/A   Overcast
9:55 PM 26.6 °F 22.6 °F 8.6 °F 47% 30.24 in 10.0 mi SSW 3.5 mph - N/A   Overcast
10:15 PM 26.6 °F 21.2 °F 8.6 °F 47% 30.23 in 10.0 mi SSW 4.6 mph - N/A   Overcast
10:35 PM 26.6 °F 22.6 °F 8.6 °F 47% 30.24 in 10.0 mi SW 3.5 mph - N/A   Overcast
10:55 PM 26.6 °F 19.1 °F 8.6 °F 47% 30.22 in 10.0 mi SSW 6.9 mph - N/A   Overcast
11:15 PM 26.6 °F - 6.8 °F 43% 30.24 in 10.0 mi Calm Calm - N/A   Overcast
11:35 PM 26.6 °F 22.6 °F 8.6 °F 47% 30.23 in 10.0 mi SW 3.5 mph - N/A   Overcast
11:55 PM 26.6 °F 22.6 °F 8.6 °F 47% 30.23 in 10.0 mi SW 3.5 mph - N/A   Overcast